Flag for Poland Weather past 2 weeks in Toruń, Poland

Now
34 °F

Fog.


Feels Like: 31 °F
Forecast: 29 / 36 °F
Wind: 3 mph from Southwest

Location: Torun

Current Time: Jan 26, 2015 at 3:55:36 PM

Latest Report: Jan 26, 2015 at 3:00 PM


Visibility: 4 mi

Pressure: 30.15 "Hg

Humidity: 83%

Dew point: 29 °F

Location of ToruńLocation

Historic Weather in Toruń — Graph

°F

Toruń temperature yesterday

Maximum temperature yesterday: 32 °F (at 8:00 PM)
Minimum temperature yesterday: 28 °F (at 7:00 AM)
Average temperature yesterday: 30 °F

Past Weeks' High & Low Weather Summary

 TemperatureHumidityPressure
High50 °F (Jan 13, 5:00 PM)100% (Jan 18, 8:00 AM)30.26 "Hg (Jan 18, 8:00 AM)
Low25 °F (Jan 22, 7:00 AM)59% (Jan 14, 3:00 PM)29.47 "Hg (Jan 11, 2:00 PM)
Average35 °F88%29.97 "Hg
* Reported Jan 11 2:00 PM — Jan 26 2:00 PM, Toruń, Weather by CustomWeather, © 2014

Note: Actual official high and low records may vary slightly from our data, if they occured in-between our weather recording intervals... More about our weather records

Advertising

Toruń weather history for previous 24 hours

 ConditionsComfort  
Time TempWeatherWind HumidityBarometerVisibility
2:00 PM
Jan 26
33 °FFog.3 mph86%30.18 "Hg4 mi
1:00 PM34 °FFog.3 mph85%30.20 "Hg6 mi
12:00 PM33 °FFog.2 mph87%30.22 "Hg5 mi
11:00 AM33 °FFog.2 mph89%30.24 "Hg4 mi
10:00 AM33 °FFog.1 mph93%30.25 "Hg3 mi
9:00 AM32 °FFog.1 mph95%30.26 "Hg2 mi
8:00 AM32 °FFog.1 mph95%30.26 "Hg3 mi
7:00 AM32 °FFog.1 mph95%30.26 "Hg3 mi
6:00 AM32 °FFog.1 mph95%30.26 "Hg2 mi
5:00 AM32 °FFog.1 mph95%30.25 "Hg2 mi
4:00 AM32 °FFog.1 mph95%30.25 "Hg3 mi
3:00 AM32 °FFog.1 mph95%30.26 "Hg3 mi
2:00 AM32 °FFog.2 mph95%30.26 "Hg3 mi
1:00 AM32 °FFog.1 mph95%30.26 "Hg2 mi
12:00 AM32 °FFog.1 mph94%30.25 "Hg2 mi
11:00 PM
Jan 25
32 °FFog.1 mph93%30.25 "Hg1 mi
10:00 PM32 °FFog.1 mph93%30.25 "Hg1 mi
9:00 PM32 °FFog.1 mph93%30.24 "Hg1 mi
8:00 PM32 °FFog.No wind92%30.23 "Hg1 mi
7:00 PM31 °FFog.1 mph91%30.23 "Hg1 mi
6:00 PM31 °FFog.1 mph90%30.22 "Hg1 mi
5:00 PM31 °FFog.1 mph88%30.21 "Hg2 mi
4:00 PM31 °FFog.1 mph87%30.19 "Hg2 mi
3:00 PM31 °FFog.2 mph86%30.18 "Hg2 mi
Weather by CustomWeather, © 2014

See weather overviewHow to use our weather pages